Zurück zum Katalog

FENGYUN 1C DEB

AktivPO
NORAD 30070·DEBRIS·🇨🇳 China

Gestartet May 10, 1999 von Taiyuan Satellite Launch Center

Loading…

Nächste Überflüge (nächste 24 Stunden)

TLE

AktuellSource: Space-Track

Epoche: Sep 14, 2026, 14:32 UTC

1 30070U 99025PX  26257.60610470  .00001482  00000-0  51246-3 0  9997
2 30070  98.2579 301.0530 0322724 244.0335 273.3431 14.11816548997697

Verfolge FENGYUN 1C DEB in Echtzeit mit AllMySat

Download on the App Store